Location: La Sioule Rivi�re
(46.3664°N, 3.3197°E)
Time: 13:06:14
(UTC+00:00)

SeaSat 1 - Pass Details

Date: 29 October 2020
Orbit: 744 x 747 km, 108.0° (Epoch: 23 November)

Event Time Altitude Azimuth Distance (km) Brightness Sun altitude
Exits shadow 18:00:38 22° 67° (ENE) 1,594 3.6 -15.1°
Maximum altitude 18:01:47 24° 46° (NE) 1,517 3.6 -15.3°
Drops below altitude 10° 18:05:41 10° 354° (N) 2,275 5.0 -16.0°
Sets 18:08:19 0° 341° (NNW) 3,203 5.9 -16.4°
